Voltar ao catálogo

DELTA 1 DEB

AtivoSSO
NORAD 10642·DEBRIS·🇺🇸 United States

Lançado Jul 29, 1976 de Vandenberg Space Force Base

Loading…

Próximas Passagens (próximas 24 horas)

TLE

AtualizadoSource: Space-Track

Época: Sep 13, 2026, 19:16 UTC

1 10642U 76077C   26256.80289691 -.00000008  00000-0  33340-3 0  9999
2 10642 102.2554 205.3193 0102045 233.4921 183.6659 12.21840239235856

Acompanhe DELTA 1 DEB em tempo real com AllMySat

Download on the App Store